Date,TemperatureHighF,TemperatureAvgF,TemperatureLowF,DewpointHighF,DewpointAvgF,DewpointLowF,HumidityHigh,HumidityAvg,HumidityLow,PressureMaxIn,PressureMinIn,WindSpeedMaxMPH,WindSpeedAvgMPH,GustSpeedMaxMPH,PrecipitationSumIn
2013-1-1,31.3,18.3,-4.3,24.7,9.6,-9.3,80,69,52,29.81,29.53,8,2,12,0.00
2013-1-2,21.4,3.6,-11.3,13.0,-3.5,-16.8,80,72,57,30.08,29.73,10,2,12,0.00
2013-1-3,12.8,-5.3,-19.6,1.8,-11.6,-24.6,80,74,57,30.09,29.81,2,0,2,0.00
2013-1-4,32.8,18.0,-5.9,25.4,11.5,-11.0,80,76,67,29.81,29.62,8,1,10,0.00
2013-1-5,33.8,25.8,8.3,25.5,15.8,0.9,78,66,53,30.10,29.66,16,3,19,0.00
2013-1-6,32.8,22.1,9.4,25.7,13.4,3.1,77,70,38,30.07,29.77,3,0,4,0.00
2013-1-7,29.9,19.3,1.1,22.7,9.2,-8.1,79,67,20,30.22,29.80,6,1,9,0.00
2013-1-8,34.4,13.2,-1.8,25.9,6.4,-6.7,79,74,57,30.24,30.07,3,0,5,0.00
2013-1-9,41.6,21.5,5.0,31.2,12.7,-1.3,76,69,28,30.25,29.79,11,1,11,0.02
2013-1-10,39.4,34.1,19.6,31.0,23.8,10.0,77,66,59,30.42,29.86,14,4,14,0.00
2013-1-11,35.6,26.2,13.3,27.8,16.5,3.1,76,67,36,30.43,30.02,8,1,8,0.06
2013-1-12,43.0,36.6,32.8,33.5,19.5,3.0,70,51,27,30.05,29.96,3,0,5,0.01
2013-2-14,24.7,24.3,24.1,17.8,17.4,17.2,76,75,74,29.80,29.78,0,0,0,0.14
2013-2-15,45.9,31.1,21.4,31.4,20.9,9.3,76,66,49,29.81,29.72,0,0,0,0.00
2013-2-16,33.3,26.5,18.4,20.6,14.9,5.2,74,62,49,29.83,29.71,0,0,0,0.00
2013-2-17,18.4,15.2,11.5,6.3,3.7,0.9,72,60,52,29.71,29.45,0,0,0,0.00
2013-2-18,26.3,14.5,4.7,3.2,-1.1,-4.9,72,52,27,29.98,29.64,17,1,17,0.00
2013-2-19,39.1,24.0,4.3,28.6,12.5,-3.9,74,62,38,30.00,29.43,12,1,12,0.00
2013-2-20,33.7,28.4,21.8,22.9,17.2,4.8,76,63,32,29.60,29.41,0,0,0,0.00
2013-2-21,25.2,20.1,13.1,18.4,11.9,6.9,77,71,59,30.16,29.60,13,1,13,0.00
2013-2-22,39.1,28.3,13.3,24.5,18.9,-4.9,77,68,41,30.26,30.10,6,1,7,0.00
2013-2-23,35.6,32.1,27.2,27.8,22.4,7.3,76,68,37,30.10,29.78,8,2,9,0.01
2013-2-24,41.0,33.3,29.0,33.0,13.9,-8.7,74,47,18,29.79,29.62,4,0,7,0.24
2013-2-25,38.3,32.6,28.3,31.0,14.9,-4.1,75,51,23,30.08,29.78,4,0,4,0.05
2013-2-26,43.2,35.0,29.3,34.5,17.1,-11.7,76,54,16,30.17,30.00,6,1,7,0.01
2013-2-27,38.5,33.9,31.0,30.0,21.4,6.9,75,60,36,30.00,29.51,6,1,10,0.26
2013-2-28,46.4,35.8,29.9,38.0,17.5,-8.8,75,50,18,29.51,29.42,6,0,6,0.09
2013-3-1,36.7,32.4,26.3,27.9,17.6,-14.5,76,59,14,29.59,29.43,14,3,14,0.00
2013-3-2,36.4,31.0,25.4,26.5,23.0,16.2,76,72,62,29.59,29.54,10,3,11,0.00
2013-3-3,37.1,29.2,23.9,27.5,21.2,14.3,76,72,66,29.57,29.48,8,2,8,0.02
2013-3-4,36.4,28.7,25.6,24.0,20.9,19.0,77,73,58,29.69,29.51,9,2,11,0.00
2013-3-5,38.5,30.6,24.8,28.2,22.4,12.4,76,72,58,29.94,29.70,8,2,13,0.00
2013-3-6,42.3,34.5,27.0,31.2,23.4,10.7,76,64,44,30.05,29.93,10,2,10,0.00
2013-3-7,38.2,31.8,30.2,25.0,23.1,22.3,74,70,59,30.03,29.96,6,1,8,0.00
2013-3-8,43.2,34.5,27.7,25.4,21.5,-5.6,76,60,23,30.06,29.95,8,4,12,0.00
2013-3-9,47.0,30.9,22.9,25.0,20.1,14.8,76,66,35,30.20,30.11,4,0,4,0.00
2013-3-10,52.6,35.1,17.3,31.9,22.9,9.0,76,62,41,30.22,30.03,8,1,8,0.00
2013-3-11,44.3,39.7,33.5,34.7,30.8,26.0,75,70,63,30.07,29.88,9,2,9,0.00
2013-3-12,43.2,40.9,39.2,33.4,31.2,-3.3,73,69,16,29.88,29.68,6,3,10,0.20
2013-3-13,35.5,35.2,34.9,-14.4,-15.0,-15.9,11,11,10,29.65,29.65,0,0,0,0.00
2013-3-14,32.9,25.3,17.6,21.7,14.0,-1.9,76,63,30,29.72,29.57,10,3,13,0.00
2013-3-15,38.9,24.4,11.9,23.9,12.3,4.9,77,61,43,29.74,29.43,8,2,12,0.00
2013-3-31,46.1,41.2,37.8,34.2,32.2,29.0,74,70,58,29.72,29.65,8,2,14,0.05
2013-4-1,49.3,38.3,29.3,40.7,25.4,12.1,74,60,39,29.67,29.42,11,2,16,0.21
2013-4-2,37.1,29.4,22.3,16.8,12.5,9.4,62,49,35,29.77,29.66,22,4,22,0.00
2013-4-3,42.5,32.2,24.5,16.0,12.1,6.5,62,45,25,30.05,29.76,19,4,19,0.00
2013-4-4,51.8,35.6,20.5,24.6,16.9,10.5,73,48,28,30.14,29.83,11,2,12,0.00
2013-4-5,52.6,36.8,24.8,30.7,23.3,16.8,75,60,34,29.83,29.64,14,3,16,0.00
2013-4-6,40.9,30.1,22.9,18.5,10.2,4.3,72,45,24,30.20,29.83,17,5,19,0.05
2013-4-7,57.2,41.0,25.6,33.3,24.1,13.2,71,52,33,30.17,29.75,12,3,17,0.00
2013-4-8,57.4,45.1,37.8,35.5,32.2,28.5,74,62,40,30.02,29.79,9,2,10,0.00
2013-4-9,58.7,46.2,37.3,44.5,29.7,2.5,74,54,20,29.93,29.75,10,2,12,0.21
2013-4-10,52.0,44.0,39.6,41.9,14.2,-12.2,68,35,7,29.90,29.80,3,0,5,0.35
2013-4-11,43.6,39.5,35.8,29.3,13.6,-14.4,73,40,9,30.08,29.80,10,2,10,0.00
2013-4-12,36.0,32.8,31.1,24.6,20.9,12.6,73,62,44,30.07,29.76,8,2,9,0.06
2013-4-13,52.9,39.9,31.3,40.2,23.7,0.4,72,54,26,29.81,29.68,5,0,8,0.48
2013-4-14,48.2,37.7,27.5,37.8,20.5,-7.3,73,52,17,30.13,29.79,9,1,13,0.06
2013-4-15,60.7,41.4,26.5,39.9,21.9,-15.1,71,48,15,30.26,30.11,9,1,11,0.00
2013-4-16,57.2,48.9,38.0,46.5,29.0,-5.8,73,52,5,30.19,29.85,9,2,11,0.10
2013-4-17,57.2,45.1,30.4,36.0,20.3,-14.7,73,42,5,30.27,29.94,14,3,17,0.00
2013-4-18,60.8,44.5,27.0,42.3,29.3,10.5,73,56,41,30.32,29.91,11,3,18,0.00
2013-4-19,76.3,62.1,50.4,58.8,48.5,27.7,70,61,27,29.91,29.39,16,4,20,0.46
2013-4-20,55.3,45.2,36.4,37.3,24.6,11.6,71,45,30,30.15,29.56,18,3,20,0.06
2013-4-21,47.7,36.8,24.7,22.1,18.0,13.5,70,48,28,30.59,30.14,10,3,16,0.00
2013-4-22,57.4,38.9,20.3,30.5,21.2,13.3,75,52,28,30.65,30.44,11,2,14,0.00
2013-4-23,45.7,37.9,25.4,35.5,28.1,6.8,74,68,42,30.48,30.07,9,2,12,0.00
2013-4-24,78.5,56.3,39.2,51.6,39.8,26.0,71,56,26,30.07,29.57,7,1,9,0.00
2013-4-25,60.7,48.6,30.6,49.1,32.3,23.0,73,55,30,30.20,29.57,13,3,16,0.00
2013-4-26,61.6,42.5,24.7,37.0,28.1,7.0,73,59,35,30.34,30.20,8,1,16,0.00
2013-4-27,67.3,46.4,27.7,40.9,28.3,8.8,72,52,26,30.34,30.17,8,1,10,0.00
2013-4-28,74.7,50.7,27.2,44.0,32.4,13.3,73,53,25,30.24,30.02,7,1,8,0.00
2013-4-29,70.6,55.8,40.7,45.2,39.1,30.9,71,55,38,30.13,30.03,9,2,12,0.00
2013-4-30,76.7,61.8,50.4,49.0,42.8,36.8,69,51,31,30.21,30.11,8,1,10,0.00
2013-5-1,80.1,57.3,35.6,46.0,36.3,24.2,71,50,19,30.35,30.22,6,1,10,0.00
2013-5-2,84.1,58.5,35.6,53.7,38.5,19.8,71,51,25,30.36,30.20,10,1,10,0.00
2013-5-3,73.8,54.1,34.4,47.3,37.4,26.2,72,55,33,30.44,30.24,10,2,11,0.01
2013-5-4,80.8,57.4,35.3,50.2,35.7,7.0,69,47,23,30.28,30.08,7,1,12,0.00
2013-5-5,79.7,57.3,35.6,45.2,37.4,23.9,71,51,25,30.20,30.03,8,1,11,0.00
2013-5-6,80.6,56.0,34.6,45.4,32.8,13.2,71,47,18,30.14,29.96,8,1,9,0.00
2013-5-7,86.4,59.0,34.6,53.6,38.6,17.0,71,52,18,30.06,29.92,6,1,6,0.00
2013-5-8,78.1,59.4,40.0,60.1,40.9,6.8,68,53,13,30.10,29.94,10,1,11,0.31
2013-5-9,76.1,63.4,52.2,60.9,35.6,-0.1,68,42,5,29.94,29.78,8,1,12,0.02
2013-5-10,77.6,62.5,52.4,61.9,35.3,-2.5,67,42,7,29.88,29.75,5,1,8,0.00
2013-5-11,69.5,60.4,54.4,53.2,21.4,0.1,57,25,6,29.75,29.55,5,1,5,0.43
2013-5-12,64.3,54.4,38.5,52.3,24.8,-4.6,71,39,5,29.70,29.51,10,1,13,0.02
2013-5-13,55.1,44.4,36.9,37.3,31.5,28.5,71,61,46,29.95,29.69,8,2,11,0.00
2013-5-14,57.4,43.6,29.5,37.7,25.9,-12.7,71,52,15,30.00,29.88,8,2,12,0.00
2013-5-15,67.0,45.2,26.3,43.2,29.4,-0.3,71,56,16,29.96,29.54,9,1,12,0.11
2013-5-16,77.4,57.6,41.6,52.2,25.7,-11.0,68,34,9,29.76,29.51,17,2,20,0.01
2013-5-17,70.4,53.1,39.8,42.8,38.1,25.7,70,58,36,30.14,29.77,11,3,13,0.00
2013-5-18,79.9,54.0,32.0,50.5,34.9,-1.0,68,50,20,30.21,30.10,5,1,7,0.00
2013-5-19,73.1,54.8,38.3,55.6,37.2,7.3,67,53,16,30.21,30.05,7,1,8,0.23
2013-5-20,72.0,62.0,53.5,60.0,32.0,0.4,66,37,5,30.05,29.87,8,1,8,0.04
2013-5-21,83.2,66.3,52.2,67.5,28.7,-2.5,65,29,1,29.97,29.75,6,1,15,1.15
2013-5-22,75.2,62.4,51.5,61.6,27.7,-3.3,64,32,6,29.83,29.72,6,2,8,0.17
2013-5-23,81.9,69.0,58.7,68.1,40.7,2.3,65,41,6,29.75,29.64,6,1,8,0.32
2013-5-24,62.3,52.9,43.6,40.6,16.8,-2.1,68,30,3,29.88,29.55,11,3,13,0.83
2013-5-25,44.1,41.0,35.6,23.2,7.9,-5.4,48,26,15,29.85,29.75,11,4,15,0.84
2013-5-26,54.0,44.1,34.9,42.5,24.2,-7.4,70,51,14,30.00,29.71,10,3,14,0.10
2013-5-27,70.9,50.4,34.4,44.8,25.1,-5.2,68,39,18,30.11,29.98,9,2,10,0.00
2013-5-28,77.9,55.2,33.5,53.1,34.8,4.8,67,47,27,30.17,30.01,9,1,9,0.00
2013-5-29,62.6,56.9,52.2,38.4,23.2,-0.2,55,29,7,30.04,29.88,3,0,6,0.18
2013-5-30,92.9,70.2,54.4,70.6,36.2,-1.1,64,34,3,29.99,29.90,5,1,8,0.01
2013-5-31,97.2,74.1,56.2,73.1,40.6,0.4,64,34,2,30.02,29.83,5,1,8,0.00
2013-6-1,92.7,72.5,57.2,71.5,36.1,1.1,63,31,1,29.88,29.74,6,1,14,0.05
2013-6-2,90.7,73.3,63.5,72.3,31.3,6.0,62,23,1,29.75,29.57,8,1,8,0.06
2013-6-11,71.3,55.4,54.4,41.3,3.1,-1.1,34,11,7,29.62,29.51,1,0,1,3.43
2013-6-12,70.4,58.1,49.9,55.5,27.8,-1.9,67,37,5,29.77,29.51,10,2,12,0.05
2013-6-13,67.9,57.8,49.9,53.9,23.2,-4.5,63,32,6,29.76,29.62,3,0,3,0.11
2013-6-14,78.5,62.9,51.1,57.8,31.6,-3.6,67,37,5,29.75,29.61,8,2,10,0.01
2013-6-15,79.7,60.3,42.3,52.6,35.7,-7.2,68,43,7,29.87,29.76,8,1,8,0.00
2013-6-16,77.4,59.0,43.6,61.2,35.3,0.8,65,44,6,29.85,29.62,5,0,5,0.10
2013-6-17,77.8,64.5,54.2,63.2,30.0,-11.8,66,33,2,29.84,29.70,7,1,8,0.03
2013-6-18,72.2,59.7,47.2,58.0,30.0,-2.1,67,37,1,29.91,29.82,4,1,4,0.07
2013-6-19,77.2,56.7,41.8,51.8,26.4,-10.8,66,36,2,30.11,29.90,9,1,9,0.01
2013-6-20,86.4,59.8,39.2,57.2,37.0,-1.6,67,44,16,30.19,30.08,5,1,7,0.00
2013-6-21,89.3,63.8,43.6,63.0,40.9,-8.2,66,45,5,30.17,30.10,11,1,11,0.00
2013-6-22,86.8,67.6,51.7,69.8,42.6,1.5,65,43,12,30.14,30.01,5,1,9,0.05
2013-6-23,90.9,72.4,61.7,74.8,32.5,4.7,64,26,1,30.04,29.87,5,1,8,0.57
2013-6-24,92.0,73.1,63.7,74.5,31.2,6.1,66,23,1,29.92,29.82,7,1,9,0.19
2013-6-25,91.6,72.8,63.9,74.0,29.6,6.3,65,22,1,29.86,29.67,7,1,8,0.40
2013-6-26,82.6,69.9,63.5,67.8,21.2,6.0,62,14,1,29.74,29.67,4,0,4,0.93
2013-6-27,85.9,72.2,60.5,71.8,39.0,3.7,65,34,1,29.74,29.64,6,1,7,0.00
2013-6-28,86.0,69.9,61.4,72.0,34.2,4.4,65,31,1,29.65,29.36,7,1,9,1.10
2013-6-29,87.1,73.7,64.6,70.2,37.9,6.9,66,31,1,29.60,29.41,6,1,8,0.16
2013-6-30,88.6,74.4,62.8,72.3,42.4,5.5,65,36,1,29.85,29.59,5,1,8,0.01
2013-7-1,79.6,69.7,63.0,65.4,28.6,5.7,62,23,1,29.99,29.85,4,1,4,0.92
2013-7-2,83.5,70.2,62.1,66.8,25.8,5.0,60,19,1,30.08,29.98,4,1,6,0.38
2013-7-3,92.9,75.7,63.9,77.0,38.0,-2.0,65,29,1,30.10,30.01,6,1,7,0.63
2013-7-4,94.3,77.2,68.0,77.0,32.0,9.5,65,20,1,30.11,29.97,6,1,8,0.31
2013-7-5,92.9,77.0,67.3,76.7,33.6,9.0,65,22,1,30.07,29.97,7,1,10,0.23
2013-7-6,90.9,76.1,63.9,74.1,45.7,9.6,71,39,1,30.00,29.91,8,1,8,0.03
2013-7-7,88.4,73.9,62.3,75.4,45.1,5.1,70,42,1,29.97,29.82,6,0,6,0.02
2013-7-8,86.2,73.4,68.0,74.0,31.7,9.5,68,24,1,29.97,29.85,0,0,0,1.92
2013-7-9,87.5,74.5,67.7,74.4,43.7,9.3,69,38,1,30.01,29.92,0,0,0,0.00
2013-7-10,79.6,72.8,69.1,65.4,37.3,10.2,63,31,1,29.94,29.67,0,0,0,1.31
2013-7-11,82.1,71.9,63.2,70.4,39.1,8.8,72,37,1,29.93,29.65,0,0,0,0.05
2013-7-12,85.1,70.0,56.9,68.8,43.5,0.8,71,43,1,30.13,29.93,0,0,0,0.00
2013-7-13,87.3,70.6,60.8,72.1,44.8,4.0,71,45,1,30.23,30.13,0,0,0,0.00
2013-7-14,89.8,74.6,63.7,76.0,46.1,5.8,71,42,1,30.23,30.13,0,0,0,0.00
2013-7-15,94.3,76.8,65.3,74.1,47.2,7.4,71,40,1,30.16,30.04,0,0,0,0.00
2013-7-16,93.4,75.7,61.6,73.2,52.7,4.7,71,48,2,30.13,30.06,0,0,0,0.00
2013-7-17,97.6,78.5,62.8,78.1,53.6,5.8,69,46,1,30.12,29.88,0,0,0,0.00
2013-7-18,93.8,76.7,69.8,76.3,40.8,0.3,69,33,1,29.96,29.86,0,0,0,0.76
2013-7-19,95.6,79.8,68.8,77.9,46.0,10.1,69,35,1,29.87,29.59,0,0,0,0.12
2013-7-20,87.8,74.2,62.8,72.8,43.6,5.5,70,39,1,29.75,29.57,0,0,0,0.01
2013-7-21,85.1,68.8,59.2,66.1,44.2,2.7,71,46,1,29.94,29.75,0,0,0,0.01
2013-7-22,83.5,69.1,54.0,70.2,49.6,-1.1,71,53,3,29.96,29.79,0,0,0,0.00
2013-7-23,83.7,69.5,64.1,71.6,42.2,6.7,69,42,3,29.79,29.48,0,0,0,1.60
2013-7-24,73.8,64.1,52.2,61.4,33.7,5.7,74,40,1,29.96,29.51,0,0,0,0.01
2013-7-25,75.6,60.7,46.4,61.1,42.9,-7.2,72,55,1,30.04,29.95,0,0,0,0.00
2013-7-26,74.0,63.0,54.5,61.5,45.6,3.0,71,55,12,30.02,29.91,0,0,0,0.00
2013-7-27,84.1,66.7,53.8,67.1,42.8,-7.2,71,46,7,29.98,29.88,0,0,0,0.00
2013-7-28,79.9,68.1,58.1,67.6,43.0,2.0,71,46,1,29.93,29.84,0,0,0,0.00
2013-7-29,84.2,71.3,60.7,67.1,43.8,5.2,72,43,1,29.99,29.87,0,0,0,0.01
2013-7-30,77.8,65.0,53.5,60.5,47.5,-5.7,72,55,8,30.04,29.97,0,0,0,0.00
2013-7-31,81.7,65.4,51.8,64.6,43.8,-1.9,71,49,6,30.07,29.93,0,0,0,0.00
2013-8-1,81.0,64.7,54.5,64.8,38.4,-0.2,70,42,2,29.96,29.75,0,0,0,0.14
2013-8-2,81.2,68.5,55.8,64.8,39.5,4.9,72,41,1,29.77,29.69,0,0,0,0.01
2013-8-3,79.4,64.2,53.5,60.9,42.3,-8.9,72,48,1,29.77,29.69,0,0,0,0.11
2013-8-4,73.8,60.8,50.8,60.8,36.1,-1.9,72,45,1,29.85,29.73,0,0,0,0.03
2013-8-5,70.9,60.0,47.7,47.8,34.8,-10.9,74,42,1,29.98,29.84,0,0,0,0.04
2013-8-6,78.8,60.4,43.9,59.8,43.9,-5.4,89,56,10,30.05,29.98,0,0,0,0.00
2013-8-7,80.8,66.2,51.7,63.3,41.5,-29.4,79,46,1,30.08,29.95,0,0,0,0.00
2013-8-8,86.9,75.1,66.2,73.1,57.8,10.3,83,58,1,29.96,29.86,0,0,0,0.00
2013-8-9,100.6,77.6,68.8,32.3,14.6,-20.9,1,1,1,29.89,29.68,0,0,0,1.68
2013-8-10,137.7,113.4,81.9,69.8,38.1,-13.7,20,1,1,29.96,29.71,0,0,0,0.00
2013-8-11,138.4,89.7,-21.1,62.3,15.0,-81.6,5,1,1,30.01,29.93,0,0,0,0.00
2013-8-12,75.2,73.8,69.5,64.8,62.1,10.5,70,68,1,29.94,29.83,0,0,0,0.00
2013-8-13,74.0,63.8,57.6,63.1,29.5,1.6,72,32,1,29.83,29.60,0,0,0,0.00
2013-8-14,71.8,60.3,49.0,57.6,33.6,-16.0,73,44,1,29.88,29.60,0,0,0,0.00
2013-8-15,76.0,58.9,46.1,59.9,30.9,-7.5,73,41,1,30.02,29.88,0,0,0,0.00
2013-8-16,80.3,61.2,48.6,64.2,37.5,-4.8,72,47,1,30.13,30.01,0,0,0,0.00
2013-8-17,79.6,63.2,53.6,64.5,35.3,-1.6,72,40,1,30.21,30.13,0,0,0,0.00
2013-8-18,80.5,64.3,53.8,67.9,38.8,-1.2,73,45,1,30.21,30.01,0,0,0,0.00
2013-8-19,83.7,66.4,55.8,66.7,36.5,0.4,72,38,1,30.01,29.87,0,0,0,0.00
2013-8-20,85.1,68.3,55.8,68.4,39.6,0.1,72,40,1,30.03,29.93,0,0,0,0.00
2013-8-21,87.5,70.8,59.8,70.8,41.0,3.1,72,39,1,30.08,29.93,0,0,0,0.00
2013-8-22,88.2,71.1,59.4,71.5,37.0,2.8,71,33,1,29.95,29.72,0,0,0,0.00
2013-8-23,74.9,64.2,49.5,61.3,35.7,1.0,75,41,1,30.11,29.78,0,0,0,0.00
2013-8-24,79.0,58.8,47.2,59.8,36.8,-6.0,73,48,3,30.26,30.11,0,0,0,0.00
2013-8-25,80.1,62.1,47.9,61.9,42.0,5.5,73,50,17,30.30,30.06,0,0,0,0.00
2013-8-26,80.6,69.0,61.2,68.8,42.2,-2.0,71,43,3,30.08,29.80,0,0,0,0.00
2013-8-27,86.4,73.5,65.5,73.4,40.8,7.6,71,37,1,29.83,29.76,0,0,0,0.00
2013-8-28,87.7,72.8,65.3,74.3,39.6,7.4,72,35,1,29.91,29.76,0,0,0,0.00
2013-8-29,80.3,69.2,60.7,68.4,43.4,4.4,73,45,1,29.99,29.89,0,0,0,0.00
2013-8-30,86.0,72.7,63.7,71.8,54.4,28.8,72,54,27,29.94,29.71,0,0,0,0.00
2013-8-31,77.9,71.1,66.8,59.4,23.6,8.6,53,16,1,29.73,29.67,0,0,0,0.00
2013-9-1,85.0,74.1,68.0,73.1,38.0,5.4,72,33,1,29.79,29.70,0,0,0,0.00
2013-9-2,83.5,72.3,64.8,73.1,31.6,6.9,71,26,1,29.76,29.61,0,0,0,0.00
2013-9-3,77.9,67.0,60.8,66.8,35.2,4.2,74,37,1,29.73,29.63,0,0,0,0.00
2013-9-4,76.9,66.2,56.3,62.8,46.8,1.1,73,53,1,29.83,29.73,0,0,0,0.00
2013-9-5,66.4,58.1,42.1,50.8,33.7,-26.8,76,45,1,30.09,29.79,0,0,0,0.00
2013-9-6,68.8,51.9,40.1,50.0,36.8,11.7,75,58,29,30.17,29.98,0,0,0,0.00
2013-9-7,72.9,57.2,44.3,60.5,43.1,18.6,74,60,35,29.98,29.74,0,0,0,0.00
2013-9-8,62.1,55.1,40.3,50.4,33.9,-1.6,77,49,1,30.01,29.68,0,0,0,0.00
2013-9-9,73.3,51.8,36.5,52.8,37.5,3.3,75,59,24,30.13,29.98,0,0,0,0.00
2013-9-10,72.4,59.2,45.5,59.2,31.7,2.3,68,39,1,30.01,29.89,0,0,0,0.00
2013-9-11,93.1,73.3,62.1,78.3,31.7,-20.8,72,25,1,29.96,29.81,0,0,0,0.00
2013-9-12,86.4,71.0,65.2,75.6,30.4,7.2,73,26,1,29.88,29.55,0,0,0,0.00
2013-9-13,65.9,60.9,54.0,54.5,27.4,4.9,74,34,1,29.75,29.53,0,0,0,0.00
2013-9-14,65.7,56.0,46.8,55.4,43.8,1.9,76,64,15,29.99,29.73,0,0,0,0.00
2013-9-15,70.4,56.3,46.4,56.7,33.0,-14.0,75,48,1,30.05,29.93,0,0,0,0.00
2013-9-16,61.7,51.8,35.8,53.0,30.7,-1.6,79,52,1,30.22,29.91,0,0,0,0.00
2013-9-17,64.8,46.0,34.4,47.4,31.3,2.9,77,58,26,30.37,30.22,0,0,0,0.00
2013-9-18,71.5,51.6,40.0,55.9,36.4,10.7,76,57,28,30.24,30.03,0,0,0,0.00
2013-9-19,74.9,54.4,43.6,59.2,32.5,-8.9,76,48,7,30.08,29.93,0,0,0,0.00
2013-9-20,77.9,57.6,45.0,63.6,35.9,-6.5,76,49,10,30.03,29.86,0,0,0,0.00
2013-9-21,74.7,60.9,45.0,61.5,41.0,-6.7,74,52,1,29.88,29.53,0,0,0,0.00
2013-9-22,65.3,57.5,47.0,55.1,40.1,-6.0,78,58,1,29.79,29.46,0,0,0,0.00
2013-9-23,54.0,47.8,42.8,43.6,39.4,27.9,78,73,55,29.94,29.78,0,0,0,0.00
2013-9-24,62.3,52.6,46.4,45.6,42.0,38.5,78,68,48,29.92,29.78,0,0,0,0.00
2013-9-25,67.3,53.2,41.2,53.1,40.2,-0.4,77,63,17,29.93,29.81,0,0,0,0.00
2013-9-26,65.5,52.1,39.2,52.4,38.2,5.4,76,61,21,30.08,29.93,0,0,0,0.00
2013-9-27,67.3,55.9,46.1,55.4,44.3,25.6,76,65,44,30.21,30.07,0,0,0,0.00
2013-9-28,73.8,54.9,45.9,59.4,31.7,-4.7,76,47,11,30.29,30.16,0,0,0,0.00
2013-9-29,72.0,54.4,44.8,59.9,27.4,-6.3,76,43,1,30.18,29.98,0,0,0,0.00
2013-9-30,71.6,53.9,44.5,59.5,30.3,-6.3,76,47,7,30.03,29.87,0,0,0,0.00
2013-10-1,75.2,56.2,44.3,61.9,26.8,-7.6,75,38,1,29.93,29.78,0,0,0,0.00
2013-10-2,77.2,59.9,50.0,63.4,29.5,-17.4,75,37,1,29.88,29.74,0,0,0,0.00
2013-10-3,74.5,55.1,41.2,56.6,30.3,-11.3,76,44,1,30.01,29.88,0,0,0,0.00
2013-10-4,71.1,55.0,42.1,58.4,37.3,-4.1,75,55,12,30.03,29.93,0,0,0,0.00
2013-10-5,66.6,58.9,54.5,55.8,46.9,30.7,75,65,37,30.05,29.98,0,0,0,0.00
2013-10-6,56.7,52.7,50.4,47.6,41.7,28.9,77,67,42,30.11,30.01,0,0,0,0.00
2013-10-7,67.3,57.0,51.1,49.6,22.5,-5.4,67,28,1,30.01,29.52,0,0,0,0.00
2013-10-8,60.1,48.8,35.1,43.4,29.3,-38.0,78,51,1,30.31,29.80,0,0,0,0.00
2013-10-9,63.7,43.8,33.7,47.4,28.8,0.0,78,58,22,30.39,30.25,0,0,0,0.00
2013-10-10,66.1,46.0,34.2,52.3,32.4,11.9,78,60,36,30.27,30.10,0,0,0,0.00
2013-10-11,71.1,50.8,39.6,56.5,37.5,13.8,78,61,31,30.11,30.02,0,0,0,0.00
2013-10-12,65.0,50.5,36.4,55.0,37.3,7.1,76,62,25,30.29,30.11,0,0,0,0.00
2013-10-13,65.2,52.8,41.0,51.5,40.8,1.3,77,65,18,30.33,30.23,0,0,0,0.00
2013-10-14,64.4,53.1,39.8,54.9,38.3,6.6,76,59,21,30.26,30.12,0,0,0,0.00
2013-10-15,66.1,57.6,49.5,56.8,35.1,-15.0,76,49,1,30.17,30.04,0,0,0,0.00
2013-10-16,67.3,57.3,49.7,54.8,41.2,-0.1,77,59,11,30.04,29.75,0,0,0,0.00
2013-10-17,68.2,56.2,47.3,53.6,42.5,18.0,77,61,25,29.75,29.61,0,0,0,0.00
2013-10-18,60.8,52.1,40.5,52.2,27.2,-27.0,78,47,1,29.80,29.51,0,0,0,0.00
2013-10-19,64.6,48.7,33.1,51.9,35.4,-9.2,77,62,12,29.84,29.58,0,0,0,0.00
2013-10-20,58.0,48.6,34.7,41.3,35.8,26.3,79,62,41,29.90,29.54,0,0,0,0.00
2013-10-21,62.8,44.0,29.3,48.3,33.7,11.2,78,68,38,29.98,29.79,0,0,0,0.00
2013-10-22,58.7,46.1,32.9,49.7,34.2,18.2,80,64,38,29.79,29.59,0,0,0,0.00
2013-10-23,52.4,39.6,29.5,39.7,29.1,15.8,79,67,48,29.68,29.49,0,0,0,0.00
2013-10-24,48.4,39.1,29.2,35.6,29.3,14.6,80,68,43,29.77,29.56,0,0,0,0.00
2013-10-25,45.7,36.8,31.7,32.8,24.3,2.0,80,62,27,30.01,29.76,0,0,0,0.00
2013-10-26,48.2,37.9,26.6,37.4,28.7,20.4,79,70,49,30.01,29.70,0,0,0,0.00
2013-10-27,52.2,39.2,27.5,39.7,28.8,15.2,80,67,43,29.92,29.65,0,0,0,0.00
2013-10-28,48.2,34.9,22.9,39.5,26.1,17.5,81,70,53,30.26,29.91,0,0,0,0.00
2013-10-29,44.1,27.0,16.6,30.2,19.5,11.4,81,74,49,30.35,30.23,0,0,0,0.00
2013-10-30,47.0,33.1,22.7,37.5,26.3,17.5,80,76,62,30.24,30.06,0,0,0,0.00
2013-10-31,49.7,39.6,27.0,33.5,16.7,-5.2,75,46,1,30.12,29.54,0,0,0,0.00
2013-11-1,65.2,57.8,46.4,56.4,24.6,-26.8,78,34,1,29.54,29.15,0,0,0,0.00
2013-11-2,58.5,46.7,34.7,47.8,35.1,-11.8,79,67,6,29.75,29.50,0,0,0,0.00
2013-11-3,39.2,32.2,19.8,33.1,20.9,14.5,81,64,40,30.36,29.75,0,0,0,0.00
2013-11-4,38.3,24.4,14.8,21.5,16.0,10.2,83,71,46,30.56,30.36,0,0,0,0.00
2013-11-5,46.4,31.2,18.7,31.1,23.2,14.0,82,73,52,30.57,30.33,0,0,0,0.00
2013-11-6,56.7,42.6,28.1,44.7,34.7,20.4,80,74,62,30.33,29.80,0,0,0,0.00
2013-11-7,52.9,46.1,33.7,44.7,34.7,-3.2,79,67,7,29.80,29.60,0,0,0,0.00
2013-11-8,39.2,33.2,25.0,33.3,24.4,16.0,80,70,57,29.96,29.71,0,0,0,0.00
2013-11-9,43.2,35.5,30.2,28.3,24.4,21.2,80,65,44,30.06,29.84,0,0,0,0.00
2013-11-10,44.8,37.9,33.5,37.9,26.2,2.4,77,64,21,29.84,29.60,0,0,0,0.00
2013-11-11,43.7,37.7,33.3,32.0,28.8,14.0,80,71,42,29.97,29.75,0,0,0,0.00
2013-11-12,27.9,26.6,25.2,19.1,18.0,17.1,72,70,66,30.10,30.06,0,0,0,0.00
2013-11-13,31.5,24.8,15.7,21.8,14.8,10.4,82,66,44,30.19,29.92,0,0,0,0.00
2013-11-14,44.3,32.6,22.5,30.6,23.5,15.8,81,70,54,29.95,29.88,0,0,0,0.00
2013-11-15,48.1,30.8,21.6,36.2,22.5,8.1,80,72,51,30.09,29.95,0,0,0,0.00
2013-11-16,55.6,35.8,25.4,38.3,27.4,18.5,80,73,39,30.18,30.06,0,0,0,0.00
2013-11-17,46.4,37.1,24.1,34.3,21.1,-7.7,79,57,5,30.18,29.66,0,0,0,0.00
2013-11-18,57.4,49.7,39.8,47.1,26.3,-27.9,79,47,1,29.65,29.31,0,0,0,0.00
2013-11-19,41.6,33.3,28.3,31.4,21.1,16.4,76,61,55,30.22,29.54,0,0,0,0.00
2013-11-20,36.2,26.6,16.9,19.2,17.0,12.1,82,68,46,30.53,30.22,0,0,0,0.00
2013-11-21,40.3,25.6,12.6,28.4,18.4,7.8,83,74,57,30.53,30.22,0,0,0,0.00
2013-11-22,37.8,33.9,27.0,31.1,24.3,0.5,80,69,22,30.22,29.68,0,0,0,0.00
2013-11-23,37.6,31.7,23.0,27.0,15.5,-22.9,80,57,1,29.84,29.64,0,0,0,0.00
2013-11-24,23.2,18.3,12.4,14.6,5.9,-3.0,74,59,45,30.08,29.69,0,0,0,0.00
2013-11-25,27.0,17.2,4.7,17.8,5.0,-4.7,78,60,34,30.24,30.04,0,0,0,0.00
2013-11-26,35.8,30.7,24.3,28.1,24.1,17.2,80,76,69,30.14,29.91,0,0,0,0.00
2013-11-27,34.9,33.5,32.0,26.5,0.1,-17.8,79,29,1,29.91,29.22,0,0,0,0.00
2013-11-28,32.0,20.7,7.4,25.8,13.1,3.0,82,73,54,30.29,29.36,0,0,0,0.00
2013-11-29,24.5,11.4,3.1,14.8,5.1,-1.2,83,76,51,30.63,30.29,0,0,0,0.00
2013-11-30,26.3,13.5,1.1,16.9,6.9,-3.2,84,75,59,30.68,30.22,0,0,0,0.00
2013-12-1,37.1,29.9,24.3,30.0,23.5,16.0,81,77,66,30.22,29.98,0,0,0,0.00